Regional Weather Roundup
Issued by NWS Charleston, SC

Current Version | Previous Version | Graphics & Text | Print | Product List | Glossary On
Versions: 1 2 3 4 5 6 7 8 9 10 11 12 13 14 15 16 17 18 19 20 21 22 23 24 25 26 27 28 29 30 31 32 33 34 35 36 37 38 39 40 41 42 43 44 45 46 47 48 49 50
888
ASUS42 KCHS 311628
RWRCHS

REGIONAL WEATHER ROUNDUP
NATIONAL WEATHER SERVICE CHARLESTON SC
1200 PM EDT WED AUG 31 2016

NOTE: "FAIR" INDICATES FEW OR NO CLOUDS BELOW 12,000 FEET WITH NO
SIGNIFICANT WEATHER AND/OR OBSTRUCTIONS TO VISIBILITY.

NOT ALL STATIONS ARE QUALITY CONTROLLED. USE DATA WITH CAUTION...
ESPECIALLY DEWPOINT OBSERVATIONS.

SCZ027-030-031-034>040-042>050-311700-
...SOUTHEAST SOUTH CAROLINA...

CITY           SKY/WX    TMP DP  RH WIND       PRES   REMARKS
N CHARLESTON   PTSUNNY   85  72  65 NE10      29.97F HX  91
WATERFRONT PRK   N/A     80  75  84 E7        29.95S
MOUNT PLEASANT FAIR      81  75  83 CALM      29.97F
JOHNS ISLAND   PTSUNNY   82  77  83 E13       29.96F HX  91
PINOPOLIS        N/A     81  75  83 E5        29.92S
MONCKS CORNER  FAIR      84  70  61 SE8       29.97F
SUMMERVILLE    FAIR      88  70  55 E10G16    29.97F HX  92
BEAUFORT MCAS  LGT RAIN  81  74  79 E13G20    29.95S
BEAUFORT ARPT  CLOUDY    81  73  78 E16       29.94F
HILTON HEAD IS PTSUNNY   84  75  74 MISG      29.95S HX  92
WALTERBORO     MOSUNNY   90  70  51 E9G18     29.96F HX  95
ALLENDALE      CLOUDY    86  72  62 VRB6      29.95F HX  92

...SOUTHERN MIDLANDS AND PEE DEE...

CITY           SKY/WX    TMP DP  RH WIND       PRES   REMARKS
GEORGETOWN     FAIR      79  72  78 E5        30.00F
KINGSTREE      CLOUDY    82  72  69 E9        29.98F
ORANGEBURG     CLOUDY    86  72  62 E7        29.98F HX  92
BARNWELL       NOT AVBL
AIKEN          FAIR      86  70  58 E8G16     30.01F HX  90
MANNING        FAIR      82  72  69 SE5       29.98F
COLUMBIA       PTSUNNY   86  70  58 E7        29.98F HX  90
SUMTER         PTSUNNY   88  71  57 E10G17    29.97F HX  93
FLORENCE       CLOUDY    86  70  58 E3        30.00S HX  90
MYRTLE BEACH   RAIN      73  64  73 W7        30.02F FOG
N MYRTLE BEACH LGT RAIN  77  74  90 CALM      30.00S FOG

$$

GAZ063-065-086>088-099>101-113>116-118-119-134>141-150-311700-
...SOUTHEAST GEORGIA...

CITY           SKY/WX    TMP DP  RH WIND       PRES   REMARKS
SAVANNAH ARPT  PTSUNNY   83  73  72 NE12      29.93F
HUNTER AAF     PTSUNNY   83  78  84 E17G26    29.91S HX  93
FORT STEWART   CLOUDY    81  75  83 E6        29.90S
STATESBORO     CLOUDY    85  75  73 NE5       29.94F HX  93
SYLVANIA       NOT AVBL
CLAXTON        PTSUNNY   86  74  68 NE12G17   29.93F HAZE    HX  94

...CSRA...CENTRAL AND FAR SOUTHEAST GEORGIA...

CITY           SKY/WX    TMP DP  RH WIND       PRES   REMARKS
THOMSON        MOSUNNY   90  72  56 CALM      30.02F HX  97
AUGUSTA-BUSH   MOSUNNY   86  70  58 E5        29.97F HX  90
AUGUSTA-DANIEL MOSUNNY   86  69  56 VRB5      29.99F HX  90
SWAINSBORO     PTSUNNY   88  68  51 E9G21     29.96F HX  91
VIDALIA        CLOUDY    86  75  70 E13       29.94F HX  95
EASTMAN        CLOUDY    88  62  41 E10G17    29.97S
HAZLEHURST     CLOUDY    87  76  69 NE6G17    29.92F HX  96
ALMA           CLOUDY    83  74  74 E8        29.92S
WAYCROSS         N/A     86  80  82 N6        29.92S HX 101
JESUP          CLOUDY    81  81 100 E9        29.91S HX  91
BAXLEY         DRIZZLE   82  79  89 E12       29.92F HX  93
BRUNSWICK      CLOUDY    84  77  79 SW7       29.92S HX  94
SAINT SIMONS   CLOUDY    84  74  71 SW8       29.91R HX  91

$$

SCZ027-028-034-036>038-045-046-048>050-GAZ119-141-311700-
...LAKE AND SUPPLEMENTAL COASTAL OBSERVATIONS...

STATION/POSITION TIME  TEMP    WIND        PRES    WAVE   SWELL
                       AIR SEA DIR/SP/G            HT/PER HT/PER/DIR
                 (UTC) (F)     (DEG/KT/KT) (MB)    (FT/S) (FT/S/D)
WINYAH BAY       1545   78      90/  2     1015.0S
LAKE MURRAY      1500   84      CALM  /  7 1015.2F
ACE BASIN NERRS  1545   83      50/  4     1015.0S
FORT PULASKI     1600   80 84   60/ 16/ 19 1014.1S
SAPELO ISLAND    1600   85     180/  5     1013.0S

$$

ANZ835-935-AMZ111-154-330-350-352-354-370-450-454-472-311700-
...C-MAN AND BUOY OBSERVATIONS...

STATION/POSITION TIME  TEMP    WIND        PRES    WAVE   SWELL
                       AIR SEA DIR/SP/G            HT/PER HT/PER/DIR
                 (UTC) (F)     (DEG/KT/KT) (MB)    (FT/S) (FT/S/D)
BUOY 41004       1550   80 84  130/ 16/ 19 1014.2F   4/ 9   3/110/ 9
BUOY 41008       1550   80 85  230/  8/ 12 1012.9S   4/ 7   3/140/ 7
FOLLY BEACH CMAN 1600   80      70/ 15/ 18 1014.9F
CAPERS NEARSHORE 1608   79 83   90/ 14/ 17 1014.5F
FRIPP NEARSHORE  1608   81 85   90/ 17/ 23 1013.1F


STATION/POSITION TIME  TEMP    WIND        PRES    WAVE   SWELL
                       AIR SEA DIR/SP/G            HT/PER HT/PER/DIR
                 (UTC) (F)     (DEG/KT/KT) (MB)    (FT/S) (FT/S/D)
5E ST. MARYS GA  1501      85                N/A     4/12   2/110/12
FRYING PAN BUOY  1600   81 84  200/  2/  4 1015.5S
BUOY 41025       1550   82 85  360/ 12/ 12 1014.7F   4/11   3/120/11
CAPE LOOKOUT NC  1600   83      30/  6/  7 1015.0F
BUOY 41002       1550   81 84  150/  6/ 12 1016.4S   4/11   3/ 50/11
BUOY 41010       NOT AVBL
ST AUGUSTINE FL  1600   81 82  200/ 11/ 14 1013.9R


$$




USA.gov is the U.S. government's official web portal to all federal, state and local government web resources and services.